When you browse on this site, cookies collect data to enhance your experience and personalize the content and advertising you see.
Visit our Privacy Policy to learn more. By continuing to use the site, you agree to this use of cookies and data.
  • In Netherlands
  • List of Countries
  • For 7 days
  • Water Temperature
  • Weather Map
  • Weather Widgets
  • user-avatar
    Login

    Hourly Weather Papiernia

    Today, 26 January, Sunday

    Time Temperature Precipitation Wind Pressure Humidity
    00:00 +1°C° 0 mm 3 mps 760 mmHg 83%
    01:00 +1°C° 0 mm 3 mps 760 mmHg 83%
    02:00 +1°C° 0 mm 3 mps 760 mmHg 83%
    03:00 +1°C° 0 mm 3 mps 760 mmHg 82%
    04:00 +1°C° 0 mm 3 mps 760 mmHg 81%
    05:00 +1°C° 0 mm 3 mps 760 mmHg 81%
    06:00 +1°C° 0 mm 3 mps 760 mmHg 80%
    07:00 +1°C° 0 mm 3 mps 760 mmHg 79%
    08:00 +1°C° 0 mm 3 mps 760 mmHg 77%
    09:00 +1°C° 0 mm 3 mps 760 mmHg 75%
    10:00 +1°C° 0 mm 3 mps 761 mmHg 74%
    11:00 +2°C° 0 mm 3 mps 760 mmHg 70%
    12:00 +2°C° 0 mm 3 mps 760 mmHg 66%
    13:00 +2°C° 0 mm 3 mps 759 mmHg 62%
    14:00 +2°C° 0 mm 3 mps 759 mmHg 62%
    15:00 +2°C° 0 mm 3 mps 759 mmHg 61%
    16:00 +2°C° 0 mm 3 mps 759 mmHg 61%
    17:00 +1°C° 0 mm 3 mps 758 mmHg 64%
    18:00 +1°C° 0 mm 3 mps 758 mmHg 66%
    19:00 +1°C° 0 mm 3 mps 758 mmHg 68%
    20:00 +1°C° 0 mm 3 mps 758 mmHg 70%
    21:00 +2°C° 0 mm 2 mps 758 mmHg 71%
    22:00 +2°C° 0 mm 2 mps 758 mmHg 73%
    23:00 +1°C° 0 mm 2 mps 758 mmHg 74%

    Tomorrow, 27 January, Monday

    Time Temperature Precipitation Wind Pressure Humidity
    00:00 +1°C° 0 mm 2 mps 758 mmHg 74%
    01:00 +1°C° 0 mm 2 mps 757 mmHg 75%
    02:00 +1°C° 0 mm 2 mps 757 mmHg 76%
    03:00 +1°C° 0 mm 2 mps 757 mmHg 77%
    04:00 +1°C° 0 mm 2 mps 756 mmHg 77%
    05:00 +1°C° 0 mm 2 mps 756 mmHg 79%
    06:00 +1°C° 0 mm 2 mps 756 mmHg 80%
    07:00 +1°C° 0 mm 2 mps 756 mmHg 81%
    08:00 +1°C° 0.1 mm 2 mps 756 mmHg 83%
    09:00 +1°C° 0.1 mm 3 mps 756 mmHg 85%
    10:00 +2°C° 0.1 mm 3 mps 756 mmHg 87%
    11:00 +2°C° 0.2 mm 3 mps 755 mmHg 89%
    12:00 +2°C° 0.2 mm 3 mps 755 mmHg 90%
    13:00 +2°C° 0.2 mm 3 mps 755 mmHg 92%
    14:00 +2°C° 0 mm 3 mps 754 mmHg 91%
    15:00 +3°C° 0 mm 3 mps 754 mmHg 90%
    16:00 +3°C° 0 mm 3 mps 754 mmHg 89%
    17:00 +2°C° 0 mm 3 mps 753 mmHg 90%
    18:00 +2°C° 0 mm 3 mps 753 mmHg 91%
    19:00 +2°C° 0 mm 3 mps 753 mmHg 92%
    20:00 +2°C° 0 mm 3 mps 752 mmHg 92%
    21:00 +1°C° 0 mm 3 mps 752 mmHg 92%
    22:00 +1°C° 0 mm 3 mps 752 mmHg 92%
    23:00 0°C° 0 mm 4 mps 751 mmHg 91%

    Day after tomorrow, 28 January, Tuesday

    Time Temperature Precipitation Wind Pressure Humidity
    00:00 0°C° 0 mm 4 mps 750 mmHg 91%
    01:00 0°C° 0 mm 4 mps 750 mmHg 90%
    02:00 0°C° 0 mm 4 mps 749 mmHg 90%
    03:00 0°C° 0 mm 4 mps 748 mmHg 91%
    04:00 0°C° 0 mm 4 mps 748 mmHg 91%
    05:00 +1°C° 0.3 mm 4 mps 747 mmHg 90%
    06:00 +1°C° 0.3 mm 5 mps 747 mmHg 89%
    07:00 +1°C° 0.3 mm 5 mps 746 mmHg 89%
    08:00 +2°C° 0.1 mm 5 mps 746 mmHg 87%
    09:00 +2°C° 0.1 mm 5 mps 746 mmHg 85%
    10:00 +2°C° 0.1 mm 5 mps 745 mmHg 83%
    11:00 +3°C° 0.1 mm 5 mps 745 mmHg 82%
    12:00 +3°C° 0.1 mm 5 mps 744 mmHg 81%
    13:00 +3°C° 0.1 mm 5 mps 743 mmHg 80%
    14:00 +3°C° 0 mm 5 mps 743 mmHg 80%
    15:00 +3°C° 0 mm 5 mps 743 mmHg 80%
    16:00 +4°C° 0 mm 4 mps 742 mmHg 80%
    17:00 +4°C° 0 mm 4 mps 742 mmHg 82%
    18:00 +3°C° 0 mm 4 mps 742 mmHg 84%
    19:00 +3°C° 0 mm 4 mps 742 mmHg 85%
    20:00 +3°C° 0 mm 4 mps 741 mmHg 85%
    21:00 +3°C° 0 mm 3 mps 741 mmHg 86%
    22:00 +3°C° 0 mm 3 mps 741 mmHg 86%
    23:00 +3°C° 0 mm 4 mps 741 mmHg 87%

    29 January, Wednesday

    Time Temperature Precipitation Wind Pressure Humidity
    00:00 +3°C° 0 mm 4 mps 741 mmHg 89%
    01:00 +3°C° 0 mm 4 mps 740 mmHg 90%
    02:00 +1°C° 0 mm 4 mps 740 mmHg 86%
    03:00 +1°C° 0 mm 5 mps 740 mmHg 82%
    04:00 +1°C° 0 mm 5 mps 740 mmHg 78%
    05:00 0°C° 0 mm 5 mps 741 mmHg 78%
    06:00 0°C° 0 mm 4 mps 741 mmHg 78%
    07:00 -1°C° 0 mm 4 mps 741 mmHg 78%
    08:00 -1°C° 0 mm 4 mps 741 mmHg 77%
    09:00 0°C° 0 mm 4 mps 742 mmHg 75%
    10:00 0°C° 0 mm 4 mps 742 mmHg 73%
    11:00 0°C° 0 mm 5 mps 742 mmHg 77%
    12:00 0°C° 0 mm 5 mps 742 mmHg 81%
    13:00 0°C° 0 mm 5 mps 742 mmHg 85%
    14:00 -1°C° 0.1 mm 6 mps 742 mmHg 87%
    15:00 -1°C° 0.1 mm 6 mps 743 mmHg 89%
    16:00 -1°C° 0.1 mm 6 mps 743 mmHg 91%
    17:00 -1°C° 0.3 mm 6 mps 743 mmHg 93%
    18:00 -1°C° 0.3 mm 6 mps 743 mmHg 94%
    19:00 -1°C° 0.3 mm 6 mps 743 mmHg 95%
    20:00 0°C° 0.3 mm 5 mps 744 mmHg 95%
    21:00 0°C° 0.3 mm 5 mps 744 mmHg 94%
    22:00 0°C° 0.3 mm 5 mps 744 mmHg 93%
    23:00 +1°C° 0 mm 5 mps 744 mmHg 89%

    30 January, Thursday

    Time Temperature Precipitation Wind Pressure Humidity
    00:00 +1°C° 0 mm 5 mps 745 mmHg 85%
    01:00 +1°C° 0 mm 5 mps 745 mmHg 81%
    02:00 +1°C° 0 mm 6 mps 745 mmHg 82%
    03:00 +1°C° 0 mm 6 mps 746 mmHg 82%
    04:00 +1°C° 0 mm 6 mps 746 mmHg 83%
    05:00 +1°C° 0 mm 6 mps 747 mmHg 81%
    06:00 +1°C° 0 mm 6 mps 747 mmHg 80%
    07:00 +1°C° 0 mm 6 mps 748 mmHg 78%
    08:00 +2°C° 0 mm 6 mps 748 mmHg 78%
    09:00 +2°C° 0 mm 6 mps 749 mmHg 77%
    10:00 +2°C° 0 mm 6 mps 749 mmHg 76%
    11:00 +2°C° 0 mm 6 mps 749 mmHg 74%
    12:00 +3°C° 0 mm 6 mps 750 mmHg 71%
    13:00 +3°C° 0 mm 6 mps 750 mmHg 69%
    14:00 +3°C° 0 mm 6 mps 751 mmHg 69%
    15:00 +3°C° 0 mm 6 mps 751 mmHg 70%
    16:00 +3°C° 0 mm 5 mps 751 mmHg 70%
    17:00 +3°C° 0 mm 5 mps 752 mmHg 71%
    18:00 +3°C° 0 mm 5 mps 752 mmHg 73%
    19:00 +3°C° 0 mm 5 mps 753 mmHg 74%
    20:00 +3°C° 0 mm 4 mps 753 mmHg 77%
    21:00 +3°C° 0 mm 4 mps 753 mmHg 79%
    22:00 +3°C° 0 mm 4 mps 753 mmHg 82%
    23:00 +3°C° 0 mm 4 mps 753 mmHg 84%

    31 January, Friday

    Time Temperature Precipitation Wind Pressure Humidity
    00:00 +1°C° 0 mm 4 mps 754 mmHg 87%
    01:00 +1°C° 0 mm 4 mps 754 mmHg 90%
    02:00 +1°C° 0.2 mm 4 mps 754 mmHg 89%
    03:00 +2°C° 0.2 mm 5 mps 754 mmHg 88%
    04:00 +2°C° 0.2 mm 5 mps 754 mmHg 88%
    05:00 +2°C° 0 mm 5 mps 754 mmHg 87%
    06:00 +2°C° 0 mm 5 mps 754 mmHg 87%
    07:00 +1°C° 0 mm 4 mps 754 mmHg 86%
    08:00 +1°C° 0 mm 4 mps 755 mmHg 85%
    09:00 +1°C° 0 mm 4 mps 755 mmHg 84%
    10:00 +1°C° 0 mm 4 mps 755 mmHg 83%
    11:00 +3°C° 0 mm 3 mps 755 mmHg 81%
    12:00 +3°C° 0 mm 3 mps 755 mmHg 78%
    13:00 +3°C° 0 mm 3 mps 755 mmHg 76%
    14:00 +3°C° 0 mm 3 mps 755 mmHg 76%
    15:00 +4°C° 0 mm 2 mps 755 mmHg 76%
    16:00 +4°C° 0 mm 2 mps 755 mmHg 77%
    17:00 +3°C° 0 mm 2 mps 755 mmHg 79%
    18:00 +3°C° 0 mm 2 mps 755 mmHg 80%
    19:00 +2°C° 0 mm 2 mps 756 mmHg 82%
    20:00 +2°C° 0 mm 2 mps 755 mmHg 82%
    21:00 +2°C° 0 mm 2 mps 755 mmHg 82%
    22:00 +1°C° 0 mm 2 mps 755 mmHg 82%
    23:00 +1°C° 0 mm 2 mps 755 mmHg 83%
    Show more